EW4427 Weather Reports


time (UTC)temp
C
wind
direction
speed
KPH
gust
KPH
rain 1hr
cm
rain 24hr
cm
rain mn
cm
humidity
%
barometer
mb
20260502214619 13 0 0.0 8.0 0.00 0.00 0.00 43 1015.2
20260502214046 12 0 0.0 8.0 0.00 0.00 0.00 40 1015.2
20260502213547 12 195 3.2 8.0 0.00 0.00 0.00 42 1015.1
20260502213100 13 225 1.6 4.8 0.00 0.00 0.00 40 1015.2
20260502212547 13 0 0.0 4.8 0.00 0.00 0.00 41 1015.2
20260502212047 14 0 0.0 4.8 0.00 0.00 0.00 38 1015.3
20260502211606 14 0 0.0 4.8 0.00 0.00 0.00 40 1015.3
20260502211042 14 103 0.0 4.8 0.00 0.00 0.00 42 1015.5
20260502210542 13 192 0.0 4.8 0.00 0.00 0.00 42 1015.5
20260502210053 14 219 0.0 6.4 0.00 0.00 0.00 41 1015.5
20260502205546 15 0 0.0 6.4 0.00 0.03 0.00 44 1015.6
20260502205048 13 0 1.6 6.4 0.00 0.03 0.00 43 1015.6
20260502204555 14 188 0.0 12.9 0.00 0.03 0.00 42 1015.6
20260502204042 13 0 3.2 12.9 0.00 0.03 0.00 45 1015.7
20260502203542 13 227 3.2 11.3 0.00 0.03 0.00 46 1015.9
20260502203105 13 163 1.6 6.4 0.00 0.03 0.00 45 1016.0
20260502202542 13 0 0.0 6.4 0.00 0.03 0.00 41 1016.1
20260502202042 15 217 1.6 9.7 0.00 0.03 0.00 39 1016.0
20260502201605 14 0 0.0 9.7 0.00 0.03 0.00 49 1016.1
20260502201042 13 333 1.6 9.7 0.00 0.03 0.00 43 1016.1
20260502200545 13 24 0.0 6.4 0.00 0.03 0.00 42 1016.3
20260502200048 13 0 0.0 6.4 0.00 0.03 0.00 45 1016.4
20260502195543 13 184 0.0 6.4 0.00 0.03 0.00 41 1016.5
20260502195041 12 16 1.6 6.4 0.00 0.03 0.00 41 1016.6
20260502194554 12 10 0.0 6.4 0.00 0.03 0.00 42 1016.7
20260502194043 12 0 1.6 6.4 0.00 0.03 0.00 44 1016.7
20260502193543 12 204 1.6 8.0 0.00 0.03 0.00 40 1016.8
20260502193050 13 207 3.2 8.0 0.00 0.03 0.00 46 1017.0
20260502192543 13 209 3.2 6.4 0.00 0.03 0.00 48 1016.9
20260502192042 12 0 1.6 6.4 0.00 0.03 0.00 48 1017.1
20260502191554 12 0 0.0 3.2 0.00 0.03 0.00 45 1017.1
20260502191042 13 0 0.0 3.2 0.00 0.03 0.00 44 1017.1
20260502190542 12 0 0.0 6.4 0.00 0.03 0.00 44 1017.1
20260502190052 12 0 0.0 6.4 0.00 0.03 0.00 47 1017.2
20260502185542 12 336 0.0 11.3 0.00 0.03 0.00 41 1017.3
20260502185042 13 0 1.6 12.9 0.00 0.03 0.00 43 1017.3
20260502184548 13 0 1.6 12.9 0.00 0.03 0.00 40 1017.3
20260502184042 12 31 1.6 8.0 0.00 0.03 0.00 41 1017.3
20260502183542 12 171 1.6 6.4 0.00 0.03 0.00 47 1017.4
20260502183052 12 0 0.0 4.8 0.00 0.03 0.00 42 1017.5
20260502182542 12 139 0.0 8.0 0.00 0.03 0.00 42 1017.5
20260502182041 13 205 1.6 8.0 0.00 0.03 0.00 41 1017.5
20260502181551 13 342 1.6 6.4 0.00 0.03 0.00 39 1017.6
20260502181046 13 0 0.0 6.4 0.00 0.03 0.00 43 1017.7
20260502180541 13 109 0.0 6.4 0.00 0.03 0.00 46 1017.8
20260502164042 11 0 0.0 11.3 0.00 0.03 0.00 45 1018.6
20260502163542 11 0 1.6 12.9 0.00 0.03 0.00 47 1018.6
20260502163107 11 22 1.6 12.9 0.00 0.03 0.00 46 1018.5
20260502162544 11 5 0.0 8.0 0.00 0.03 0.00 47 1018.6
20260502162043 11 0 1.6 8.0 0.00 0.03 0.00 50 1018.6
20260502161554 12 178 0.0 8.0 0.00 0.03 0.00 52 1018.7
20260502161042 11 0 1.6 8.0 0.00 0.03 0.00 47 1018.8
20260502160544 11 40 1.6 6.4 0.00 0.03 0.00 49 1018.8
20260502152042 10 0 1.6 6.4 0.00 0.03 0.00 56 1018.9
20260502151556 10 355 0.0 6.4 0.00 0.03 0.00 54 1019.0
20260502151041 10 0 0.0 6.4 0.00 0.03 0.00 56 1018.9
20260502150541 10 0 0.0 12.9 0.00 0.03 0.00 57 1018.9
20260502130548 2 0 0.0 4.8 0.00 0.03 0.00 93 1019.4
20260502123545 0 0 0.0 1.6 0.00 0.03 0.00 92 1019.4
20260502123053 0 0 0.0 0.0 0.00 0.03 0.00 92 1019.4
20260502122545 0 0 0.0 0.0 0.00 0.03 0.00 91 1019.4
20260502122046 0 0 0.0 0.0 0.00 0.03 0.00 91 1019.3
20260502121554 0 0 0.0 0.0 0.00 0.03 0.00 91 1019.3
20260502121046 0 0 0.0 0.0 0.00 0.03 0.00 91 1019.3
20260502120545 -1 0 0.0 0.0 0.00 0.03 0.00 90 1019.3
20260502120107 -1 0 0.0 0.0 0.00 0.03 0.00 90 1019.2
20260502115548 -1 0 0.0 0.0 0.00 0.03 0.00 90 1019.2
20260502115045 -1 0 0.0 0.0 0.00 0.03 0.00 90 1019.1
20260502114625 -1 0 0.0 0.0 0.00 0.03 0.00 89 1019.1
20260502114047 -1 0 0.0 0.0 0.00 0.03 0.00 89 1019.0
20260502113547 -1 0 0.0 0.0 0.00 0.03 0.00 89 1018.9
20260502113050 -1 0 0.0 0.0 0.00 0.03 0.00 89 1019.0
20260502112546 -1 0 0.0 1.6 0.00 0.03 0.00 89 1019.0
20260502112046 -1 0 0.0 1.6 0.00 0.03 0.00 89 1019.0
20260502111549 -1 0 0.0 0.0 0.00 0.03 0.00 88 1018.9
20260502111046 -1 0 0.0 0.0 0.00 0.03 0.00 88 1018.9
20260502110546 -1 0 0.0 0.0 0.00 0.03 0.00 88 1019.0
20260502110051 -1 0 0.0 0.0 0.00 0.03 0.00 88 1018.9
20260502105549 -1 0 0.0 0.0 0.00 0.03 0.00 88 1018.9
20260502105046 -1 0 0.0 0.0 0.00 0.03 0.00 88 1018.9
20260502104557 -1 0 0.0 0.0 0.00 0.03 0.00 88 1018.9
20260502104047 -1 0 0.0 0.0 0.00 0.03 0.00 88 1018.9
20260502103548 -1 0 0.0 0.0 0.00 0.03 0.00 88 1018.8
20260502103052 -1 0 0.0 0.0 0.00 0.03 0.00 88 1018.8
20260502102547 -1 0 0.0 0.0 0.00 0.03 0.00 88 1018.8
20260502102047 -1 0 0.0 0.0 0.00 0.03 0.00 88 1018.7
20260502101611 -1 0 0.0 0.0 0.00 0.03 0.00 88 1018.8
20260502101046 -1 0 0.0 0.0 0.00 0.03 0.00 88 1018.8
20260502100547 -1 0 0.0 0.0 0.00 0.03 0.00 88 1018.8
20260502100113 -1 0 0.0 0.0 0.00 0.03 0.00 88 1018.8
20260502091046 -1 0 0.0 0.0 0.00 0.03 0.00 87 1018.7
20260502090547 -1 0 0.0 0.0 0.00 0.03 0.00 87 1018.6
20260502071047 0 0 0.0 0.0 0.00 0.03 0.00 86 1018.7
20260502070546 0 0 0.0 0.0 0.00 0.03 0.00 86 1018.8
20260502070104 0 0 0.0 0.0 0.00 0.03 0.00 86 1018.8
20260502065548 0 0 0.0 0.0 0.00 0.03 0.00 86 1018.8
20260502065043 0 0 0.0 0.0 0.00 0.03 0.00 86 1018.8
20260502064614 0 0 0.0 0.0 0.00 0.03 0.00 86 1018.9
20260502064043 0 0 0.0 0.0 0.00 0.03 0.00 86 1018.8
20260502063545 0 0 0.0 0.0 0.00 0.03 0.00 86 1018.8
20260502063113 0 0 0.0 0.0 0.00 0.03 0.00 86 1018.8
20260502062546 0 0 0.0 0.0 0.00 0.03 0.00 85 1018.9
20260502062047 0 0 0.0 0.0 0.00 0.03 0.00 85 1018.9
20260502061554 0 0 0.0 0.0 0.00 0.03 0.00 85 1018.9
20260502061047 0 0 0.0 0.0 0.00 0.03 0.00 85 1018.9
20260502060552 0 0 0.0 0.0 0.00 0.03 0.00 85 1018.9
20260502060056 0 0 0.0 0.0 0.00 0.03 0.00 85 1019.0
20260502055550 0 0 0.0 0.0 0.00 0.05 0.00 84 1018.9
20260502055046 0 0 0.0 0.0 0.00 0.05 0.00 84 1019.2
20260502054555 0 0 0.0 0.0 0.00 0.05 0.00 84 1019.1
20260502054047 0 0 0.0 0.0 0.00 0.05 0.00 84 1019.0
20260502053546 0 0 0.0 0.0 0.00 0.05 0.00 83 1019.1
20260502053057 0 0 0.0 0.0 0.00 0.05 0.00 83 1019.0
20260502052546 0 0 0.0 0.0 0.00 0.05 0.00 83 1018.9
20260502052048 0 0 0.0 0.0 0.00 0.05 0.00 83 1019.1
20260502051551 0 0 0.0 0.0 0.00 0.05 0.00 83 1019.0
20260502051046 0 0 0.0 1.6 0.00 0.05 0.00 82 1019.1
20260502050542 0 0 0.0 1.6 0.00 0.05 0.00 82 1019.1
20260502050055 0 0 0.0 1.6 0.00 0.05 0.00 82 1019.1
20260502045546 0 0 0.0 0.0 0.00 0.10 0.05 82 1018.9
20260502045043 0 0 0.0 0.0 0.00 0.10 0.05 82 1019.0
20260502044556 0 0 0.0 0.0 0.00 0.10 0.05 82 1019.1
20260502044045 0 0 0.0 0.0 0.00 0.10 0.05 82 1019.0
20260502043545 0 0 0.0 0.0 0.00 0.10 0.05 82 1019.0
20260502043123 0 0 0.0 0.0 0.00 0.10 0.05 82 1018.9
20260502042545 0 0 0.0 0.0 0.00 0.10 0.05 81 1018.9
20260502042047 0 0 0.0 0.0 0.00 0.10 0.05 81 1018.9
20260502041601 1 0 0.0 0.0 0.00 0.10 0.05 81 1018.9
20260502041052 1 0 0.0 0.0 0.00 0.10 0.05 81 1018.9
20260502040546 1 0 0.0 0.0 0.00 0.10 0.05 80 1018.9
20260502040056 1 0 0.0 0.0 0.00 0.10 0.05 80 1018.9
20260502035546 1 0 0.0 0.0 0.00 0.13 0.05 80 1018.8
20260502035046 1 0 0.0 0.0 0.00 0.13 0.05 80 1018.9
20260502034553 1 0 0.0 0.0 0.00 0.13 0.05 79 1018.8
20260502034047 1 0 0.0 0.0 0.00 0.13 0.05 78 1018.8
20260502033542 1 0 0.0 0.0 0.00 0.13 0.05 78 1018.7
20260502033051 1 0 0.0 0.0 0.00 0.13 0.05 77 1018.7
20260502032545 1 0 0.0 0.0 0.00 0.13 0.05 77 1018.7
20260502032046 1 0 0.0 0.0 0.00 0.13 0.05 76 1018.7
20260502031554 1 0 0.0 0.0 0.00 0.13 0.05 76 1018.7
20260502031045 1 0 0.0 0.0 0.00 0.13 0.05 76 1018.7
20260502030547 2 0 0.0 0.0 0.00 0.13 0.05 76 1018.7
20260502030058 2 0 0.0 0.0 0.00 0.13 0.05 76 1018.7
20260502025546 2 0 0.0 0.0 0.00 0.13 0.05 75 1018.7
20260502025046 2 0 0.0 0.0 0.00 0.13 0.05 75 1018.7
20260502024551 2 0 0.0 0.0 0.00 0.13 0.05 75 1018.7
20260502024047 2 0 0.0 0.0 0.00 0.13 0.05 74 1018.7
20260502023549 2 0 0.0 0.0 0.00 0.13 0.05 74 1018.6
20260502023055 2 0 0.0 0.0 0.00 0.13 0.05 73 1018.5
20260502022547 2 0 0.0 0.0 0.00 0.13 0.05 73 1018.5
20260502022045 2 0 0.0 1.6 0.00 0.13 0.05 73 1018.6
20260502021559 2 0 0.0 1.6 0.00 0.13 0.05 72 1018.5
20260502021045 2 0 0.0 3.2 0.00 0.13 0.05 72 1018.5
20260502020550 3 0 0.0 3.2 0.00 0.13 0.05 72 1018.5
20260502020051 3 0 0.0 4.8 0.00 0.13 0.05 71 1018.4
20260502015543 3 0 0.0 4.8 0.00 0.13 0.05 70 1018.4
20260502015044 3 0 0.0 0.0 0.00 0.13 0.05 69 1018.4
20260502014553 3 0 0.0 0.0 0.00 0.13 0.05 69 1018.3
20260502014045 3 0 0.0 0.0 0.00 0.13 0.05 69 1018.2
20260502013543 3 0 0.0 0.0 0.00 0.13 0.05 69 1018.2
20260502013057 3 0 0.0 0.0 0.00 0.13 0.05 69 1018.2
20260502012548 3 0 0.0 0.0 0.00 0.13 0.05 69 1018.2
20260502012048 3 0 0.0 3.2 0.00 0.13 0.05 69 1018.2
20260502011558 3 0 0.0 3.2 0.00 0.13 0.05 69 1018.1
20260502011046 3 0 0.0 3.2 0.00 0.13 0.05 69 1018.1
20260502010546 3 0 0.0 3.2 0.00 0.13 0.05 68 1018.1
20260502010104 3 0 0.0 3.2 0.00 0.13 0.05 67 1018.0
20260502005544 3 0 0.0 3.2 0.00 0.13 0.05 67 1018.1
20260502005043 4 0 0.0 0.0 0.00 0.13 0.05 67 1018.0
20260502004549 4 0 0.0 4.8 0.00 0.13 0.05 67 1018.1
20260502004047 4 0 0.0 4.8 0.00 0.13 0.05 67 1018.1
20260502003546 4 0 1.6 4.8 0.00 0.13 0.05 68 1018.0
20260502003053 4 0 0.0 3.2 0.00 0.13 0.05 67 1018.1
20260502002542 4 0 0.0 1.6 0.00 0.13 0.05 66 1018.0
20260502002047 4 0 0.0 1.6 0.00 0.13 0.05 66 1017.9
20260502001553 4 0 0.0 1.6 0.00 0.13 0.05 65 1017.9
20260502001046 4 0 0.0 0.0 0.00 0.13 0.05 65 1017.9
20260502000546 4 0 0.0 0.0 0.00 0.13 0.05 64 1018.0
20260502000054 4 0 0.0 3.2 0.00 0.13 0.05 64 1017.9
20260501235550 4 0 0.0 3.2 0.00 0.13 0.05 64 1018.0
20260501235046 4 0 0.0 3.2 0.00 0.13 0.05 65 1018.0
20260501234556 5 0 0.0 1.6 0.00 0.13 0.05 65 1017.9
20260501234045 4 0 0.0 3.2 0.00 0.13 0.05 67 1017.9
20260501233546 4 0 0.0 3.2 0.00 0.13 0.05 65 1017.9
20260501233104 4 0 0.0 3.2 0.00 0.13 0.05 67 1017.9
20260501232543 4 0 0.0 6.4 0.00 0.13 0.05 66 1017.9
20260501232045 4 0 0.0 6.4 0.00 0.13 0.05 65 1017.9
20260501231609 4 41 0.0 6.4 0.00 0.13 0.05 67 1018.0
20260501231048 4 0 0.0 6.4 0.00 0.13 0.05 68 1017.9
20260501230543 4 144 1.6 6.4 0.00 0.13 0.05 69 1017.9
20260501230108 4 0 1.6 8.0 0.00 0.13 0.05 65 1018.1
20260501225547 4 65 0.0 8.0 0.00 0.13 0.05 67 1018.1
20260501225047 5 0 3.2 8.0 0.00 0.13 0.05 67 1018.1
20260501224605 5 128 1.6 8.0 0.00 0.13 0.05 68 1018.1
20260501224046 4 14 0.0 8.0 0.00 0.13 0.05 69 1018.2
20260501223553 4 342 0.0 8.0 0.00 0.13 0.05 70 1018.1
20260501223100 4 43 0.0 8.0 0.00 0.13 0.05 70 1018.1
20260501222547 4 37 0.0 6.4 0.00 0.13 0.05 70 1018.1
20260501222047 4 18 1.6 11.3 0.00 0.13 0.05 72 1018.1
20260501221554 4 0 3.2 11.3 0.00 0.13 0.05 73 1018.0
20260501221047 4 0 1.6 11.3 0.00 0.13 0.05 74 1018.0
20260501220543 4 26 3.2 16.1 0.00 0.13 0.05 71 1018.1
20260501220107 4 34 3.2 16.1 0.00 0.13 0.05 73 1018.1
20260501215544 5 51 3.2 12.9 0.00 0.15 0.05 73 1018.0
20260501215049 5 80 0.0 6.4 0.00 0.15 0.05 74 1017.8